Location: Calberlah
(52.4230°N, 10.6240°E)
Time: 07:36:36
(UTC+00:00)

Cosmos 1238 Rocket - Pass Details

Date: 19 May 2025
Orbit: 356 x 776 km, 82.9° (Epoch: 21 June)

Event Time Altitude Azimuth Distance (km) Brightness Sun altitude
Exits shadow 21:24:35 16° 196° (SSW) 1,326 4.3 -13.8°
Maximum altitude 21:27:21 74° 280° (W) 479 2.6 -14.0°
Drops below altitude 10° 21:30:37 10° 7° (N) 1,513 6.0 -14.2°
Sets 21:32:32 0° 9° (N) 2,331 7.0 -14.3°
